This is the latest recevied weather packets stored in our database for station/object KB1FFS. If no packets are shown the sender has not sent any weather packets the latest 10 day(s).
| Time | Temp. | Humidity | Pressure | Rain* | Wind** | Luminosity | Snow |
|---|---|---|---|---|---|---|---|
| 1788106166 | 35.56° C | 45% | 1017.8 hPa | 0 mm | - | 603 W/m² | - |
| 1788105863 | 35.56° C | 45% | 1017.9 hPa | 0 mm | - | 587 W/m² | - |
| 1788105557 | 35° C | 47% | 1018 hPa | 0 mm | - | 575 W/m² | - |
| 1788105254 | 35° C | 47% | 1018.3 hPa | 0 mm | - | 560 W/m² | - |
| 1788104948 | 34.44° C | 48% | 1018.1 hPa | 0 mm | - | 545 W/m² | - |
| 1788104644 | 34.44° C | 47% | 1018 hPa | 0 mm | - | 531 W/m² | - |
| 1788104341 | 34.44° C | 47% | 1018.1 hPa | 0 mm | - | 516 W/m² | - |
| 1788104036 | 34.44° C | 48% | 1018 hPa | 0 mm | - | 499 W/m² | - |
| 1788103735 | 34.44° C | 47% | 1018.1 hPa | 0 mm | - | 479 W/m² | - |
| 1788103430 | 33.89° C | 49% | 1017.8 hPa | 0 mm | - | 464 W/m² | - |
| 1788103124 | 33.33° C | 49% | 1017.9 hPa | 0 mm | - | 445 W/m² | - |
| 1788102823 | 33.33° C | 49% | 1018.1 hPa | 0 mm | - | 426 W/m² | - |
| 1788102519 | 33.33° C | 50% | 1018 hPa | 0 mm | - | 408 W/m² | - |
| 1788102218 | 32.78° C | 50% | 1018 hPa | 0 mm | - | 390 W/m² | - |
| 1788101912 | 32.78° C | 50% | 1018.1 hPa | 0 mm | - | 371 W/m² | - |
| 1788101608 | 32.22° C | 50% | 1018 hPa | 0 mm | - | 353 W/m² | - |
| 1788101303 | 32.22° C | 52% | 1017.8 hPa | 0 mm | - | 332 W/m² | - |
| 1788100999 | 31.67° C | 54% | 1017.9 hPa | 0 mm | - | 314 W/m² | - |
| 1788100695 | 31.67° C | 53% | 1017.9 hPa | 0 mm | - | 295 W/m² | - |
| 1788100394 | 31.11° C | 54% | 1017.8 hPa | 0 mm | - | 277 W/m² | - |
| 1788100088 | 31.11° C | 54% | 1018 hPa | 0 mm | - | 259 W/m² | - |
| 1788099783 | 30.56° C | 55% | 1018 hPa | 0 mm | - | 239 W/m² | - |
| 1788099480 | 30.56° C | 57% | 1017.8 hPa | 0 mm | - | 221 W/m² | - |
| 1788099180 | 30° C | 57% | 1017.8 hPa | 0 mm | - | 196 W/m² | - |
| 1788098875 | 30° C | 59% | 1017.8 hPa | 0 mm | - | 160 W/m² | - |
* Rain latest hour (hover to see other rain measurements)
** Current wind speed in m/s (hover to see current wind gust speed)